{"data":{"norad_id":65215,"epoch":"2026-09-20T10:18:51.766848Z","epoch_age_seconds":126455,"freshness":"FRESH","line1":"1 65215U 25176T   26263.42976582  .00025451  00000+0  76133-3 0  9991","line2":"2 65215  53.1608 326.2230 0001125  66.9698 293.1424 15.34421156 62965","mean_motion":15.34421156,"eccentricity":0.0001125,"inclination_deg":53.1608,"raan_deg":326.223,"arg_perigee_deg":66.9698,"mean_anomaly_deg":293.1424,"bstar":0.00076133,"rev_number":6296,"period_min":93.846464145076,"perigee_km":461.87077338606,"apogee_km":463.40994829225,"semimajor_km":6840.7773608392,"source":"CELESTRAK","updated_at":"2026-09-21T09:00:35.536781Z"}}